| time (UTC) | temp F | wind direction | speed knots | gust knots | rain 1hr in | rain 24hr in | rain mn in | humidity % | barometer mb |
| 20260507195505 | 63 | 24 | 6.1 | 12.2 | 0.00 | 0.00 | 0.00 | 94 | 1016.0 |
| 20260507195006 | 63 | 12 | 5.2 | 11.3 | 0.00 | 0.00 | 0.00 | 94 | 1016.1 |
| 20260507194505 | 63 | 44 | 4.3 | 10.4 | 0.00 | 0.00 | 0.00 | 94 | 1015.9 |
| 20260507192505 | 63 | 33 | 6.1 | 13.0 | 0.00 | 0.00 | 0.00 | 94 | 1015.8 |
| 20260507192007 | 63 | 43 | 5.2 | 12.2 | 0.00 | 0.00 | 0.00 | 94 | 1015.7 |
| 20260507191005 | 63 | 33 | 5.2 | 18.2 | 0.00 | 0.00 | 0.00 | 94 | 1015.9 |
| 20260507190506 | 63 | 30 | 5.2 | 13.9 | 0.00 | 0.00 | 0.00 | 93 | 1016.0 |
| 20260507190006 | 63 | 54 | 6.1 | 13.9 | 0.00 | 0.00 | 0.00 | 93 | 1015.9 |
| 20260507185006 | 63 | 15 | 6.1 | 12.2 | 0.00 | 0.00 | 0.00 | 93 | 1015.9 |
| 20260507184504 | 63 | 51 | 5.2 | 13.9 | 0.00 | 0.00 | 0.00 | 93 | 1015.9 |
| 20260507184004 | 63 | 40 | 4.3 | 10.4 | 0.00 | 0.00 | 0.00 | 93 | 1015.8 |
| 20260507183504 | 63 | 33 | 5.2 | 13.0 | 0.00 | 0.00 | 0.00 | 93 | 1016.0 |
| 20260507182505 | 63 | 26 | 6.1 | 13.0 | 0.00 | 0.00 | 0.00 | 93 | 1016.1 |
| 20260507181005 | 63 | 35 | 6.1 | 12.2 | 0.00 | 0.00 | 0.00 | 94 | 1016.1 |
| 20260507174506 | 63 | 39 | 6.1 | 11.3 | 0.00 | 0.00 | 0.00 | 94 | 1016.2 |
| 20260507170504 | 63 | 46 | 8.7 | 14.8 | 0.00 | 0.00 | 0.00 | 93 | 1016.2 |
| 20260507170008 | 63 | 23 | 8.7 | 17.4 | 0.00 | 0.00 | 0.00 | 93 | 1016.5 |
| 20260507165506 | 63 | 13 | 7.8 | 13.9 | 0.00 | 0.00 | 0.00 | 93 | 1016.3 |
| 20260507165007 | 63 | 36 | 7.8 | 14.8 | 0.00 | 0.00 | 0.00 | 93 | 1016.3 |
| 20260507164508 | 63 | 44 | 7.8 | 18.2 | 0.00 | 0.00 | 0.00 | 93 | 1016.5 |
| 20260507163506 | 63 | 28 | 6.1 | 18.2 | 0.00 | 0.00 | 0.00 | 93 | 1016.6 |
| 20260507163009 | 63 | 27 | 8.7 | 17.4 | 0.00 | 0.00 | 0.00 | 93 | 1016.7 |
| 20260507162506 | 63 | 25 | 8.7 | 13.9 | 0.00 | 0.00 | 0.00 | 93 | 1016.8 |
| 20260507162007 | 63 | 26 | 8.7 | 15.6 | 0.00 | 0.00 | 0.00 | 94 | 1016.7 |
| 20260507154008 | 63 | 85 | 2.6 | 7.8 | 0.00 | 0.00 | 0.00 | 94 | 1017.0 |
| 20260507153506 | 63 | 28 | 6.1 | 13.9 | 0.00 | 0.00 | 0.00 | 94 | 1017.3 |
| 20260507152507 | 63 | 47 | 1.7 | 13.9 | 0.00 | 0.00 | 0.00 | 94 | 1017.1 |
| 20260507152007 | 63 | 30 | 5.2 | 13.0 | 0.00 | 0.00 | 0.00 | 94 | 1017.2 |
| 20260507151007 | 63 | 67 | 5.2 | 11.3 | 0.00 | 0.00 | 0.00 | 93 | 1017.2 |
| 20260507150507 | 63 | 42 | 5.2 | 13.0 | 0.00 | 0.00 | 0.00 | 93 | 1017.3 |
| 20260507150007 | 63 | 17 | 7.0 | 13.0 | 0.00 | 0.00 | 0.00 | 93 | 1017.6 |
| 20260507145508 | 63 | 34 | 7.0 | 11.3 | 0.00 | 0.00 | 0.00 | 93 | 1017.5 |
| 20260507143508 | 63 | 16 | 11.3 | 20.0 | 0.00 | 0.01 | 0.00 | 94 | 1017.9 |
| 20260507141508 | 63 | 17 | 6.1 | 13.9 | 0.00 | 0.01 | 0.00 | 94 | 1018.2 |
| 20260507141007 | 63 | 11 | 4.3 | 13.0 | 0.00 | 0.01 | 0.00 | 94 | 1018.4 |
| 20260507140506 | 63 | 29 | 7.8 | 14.8 | 0.00 | 0.01 | 0.00 | 94 | 1018.4 |
| 20260507140009 | 63 | 15 | 6.1 | 12.2 | 0.00 | 0.01 | 0.00 | 93 | 1018.5 |
| 20260507135506 | 63 | 22 | 7.0 | 14.8 | 0.00 | 0.01 | 0.00 | 94 | 1018.5 |
| 20260507135006 | 63 | 23 | 8.7 | 15.6 | 0.00 | 0.01 | 0.00 | 93 | 1018.5 |
| 20260507134508 | 63 | 24 | 6.1 | 14.8 | 0.00 | 0.01 | 0.00 | 93 | 1018.6 |
| 20260507133008 | 63 | 17 | 10.4 | 18.2 | 0.00 | 0.01 | 0.00 | 94 | 1018.8 |
| 20260507131006 | 63 | 21 | 8.7 | 15.6 | 0.00 | 0.01 | 0.00 | 94 | 1018.9 |
| 20260507130506 | 63 | 19 | 8.7 | 14.8 | 0.00 | 0.01 | 0.00 | 94 | 1018.8 |
| 20260507125506 | 63 | 48 | 6.1 | 11.3 | 0.00 | 0.01 | 0.00 | 94 | 1019.1 |
| 20260507125007 | 63 | 16 | 4.3 | 12.2 | 0.00 | 0.01 | 0.00 | 94 | 1019.0 |
| 20260507123007 | 63 | 19 | 5.2 | 14.8 | 0.00 | 0.01 | 0.00 | 94 | 1019.0 |
| 20260507122507 | 63 | 34 | 5.2 | 10.4 | 0.00 | 0.01 | 0.00 | 94 | 1019.1 |
| 20260507122008 | 63 | 26 | 3.5 | 11.3 | 0.00 | 0.01 | 0.00 | 94 | 1019.2 |
| 20260507121508 | 63 | 33 | 6.1 | 13.0 | 0.00 | 0.01 | 0.00 | 94 | 1019.3 |
| 20260507121006 | 63 | 29 | 5.2 | 13.0 | 0.00 | 0.02 | 0.00 | 94 | 1019.2 |
| 20260507120008 | 63 | 40 | 5.2 | 13.0 | 0.00 | 0.02 | 0.00 | 94 | 1019.4 |
| 20260507115506 | 63 | 9 | 5.2 | 11.3 | 0.00 | 0.02 | 0.02 | 94 | 1019.4 |
| 20260507115006 | 63 | 30 | 4.3 | 10.4 | 0.00 | 0.02 | 0.02 | 94 | 1019.4 |
| 20260507114508 | 63 | 29 | 4.3 | 10.4 | 0.00 | 0.03 | 0.02 | 94 | 1019.5 |
| 20260507113506 | 63 | 11 | 5.2 | 13.0 | 0.00 | 0.03 | 0.02 | 94 | 1019.4 |
| 20260507112006 | 63 | 27 | 6.1 | 10.4 | 0.00 | 0.03 | 0.02 | 93 | 1019.7 |
| 20260507111509 | 63 | 38 | 5.2 | 11.3 | 0.00 | 0.03 | 0.02 | 93 | 1019.5 |
| 20260507110007 | 63 | 16 | 6.1 | 11.3 | 0.00 | 0.03 | 0.02 | 93 | 1019.9 |
| 20260507105006 | 63 | 49 | 6.1 | 12.2 | 0.00 | 0.03 | 0.02 | 93 | 1020.0 |
| 20260507103508 | 64 | 31 | 7.0 | 12.2 | 0.00 | 0.03 | 0.02 | 92 | 1020.3 |
| 20260507103006 | 64 | 26 | 6.1 | 12.2 | 0.00 | 0.03 | 0.02 | 92 | 1020.0 |
| 20260507101008 | 64 | 14 | 6.1 | 13.9 | 0.00 | 0.03 | 0.02 | 92 | 1020.2 |
| 20260507095507 | 64 | 12 | 9.6 | 13.9 | 0.00 | 0.03 | 0.02 | 91 | 1020.3 |
| 20260507094506 | 64 | 14 | 10.4 | 18.2 | 0.00 | 0.03 | 0.02 | 91 | 1020.1 |
| 20260507092507 | 64 | 7 | 7.0 | 13.0 | 0.00 | 0.03 | 0.02 | 91 | 1020.1 |
| 20260507092006 | 64 | 15 | 8.7 | 15.6 | 0.00 | 0.03 | 0.02 | 91 | 1020.1 |
| 20260507091506 | 64 | 15 | 9.6 | 13.0 | 0.00 | 0.03 | 0.02 | 91 | 1020.0 |
| 20260507090006 | 64 | 1 | 4.3 | 12.2 | 0.00 | 0.03 | 0.02 | 92 | 1019.7 |
| 20260507085505 | 64 | 37 | 6.1 | 11.3 | 0.00 | 0.03 | 0.02 | 92 | 1019.6 |
| 20260507084506 | 64 | 12 | 3.5 | 13.0 | 0.00 | 0.03 | 0.02 | 92 | 1019.5 |
| 20260507083507 | 63 | 48 | 5.2 | 13.0 | 0.00 | 0.03 | 0.02 | 92 | 1019.4 |
| 20260507082506 | 63 | 63 | 3.5 | 11.3 | 0.00 | 0.03 | 0.02 | 92 | 1019.2 |
| 20260507080008 | 64 | 40 | 4.3 | 11.3 | 0.00 | 0.03 | 0.02 | 92 | 1019.8 |
| 20260507075505 | 63 | 43 | 5.2 | 10.4 | 0.00 | 0.03 | 0.02 | 91 | 1020.1 |
| 20260507075006 | 63 | 50 | 4.3 | 10.4 | 0.00 | 0.03 | 0.02 | 91 | 1019.9 |
| 20260507074506 | 64 | 36 | 4.3 | 10.4 | 0.00 | 0.03 | 0.02 | 91 | 1020.0 |
| 20260507074008 | 64 | 65 | 2.6 | 10.4 | 0.00 | 0.03 | 0.02 | 91 | 1019.7 |
| 20260507073506 | 63 | 32 | 5.2 | 13.9 | 0.00 | 0.03 | 0.02 | 91 | 1019.9 |
| 20260507073006 | 63 | 58 | 6.1 | 13.9 | 0.00 | 0.03 | 0.02 | 91 | 1020.0 |
| 20260507072006 | 64 | 33 | 5.2 | 13.0 | 0.00 | 0.03 | 0.02 | 91 | 1020.0 |
| 20260507071007 | 64 | 43 | 7.8 | 11.3 | 0.00 | 0.03 | 0.02 | 91 | 1020.1 |
| 20260507070507 | 64 | 22 | 4.3 | 11.3 | 0.00 | 0.03 | 0.02 | 90 | 1020.0 |
| 20260507070010 | 64 | 57 | 2.6 | 8.7 | 0.00 | 0.03 | 0.02 | 90 | 1020.1 |
| 20260507065505 | 64 | 48 | 5.2 | 12.2 | 0.00 | 0.03 | 0.02 | 90 | 1020.3 |
| 20260507064505 | 64 | 31 | 5.2 | 12.2 | 0.00 | 0.03 | 0.02 | 89 | 1020.1 |
| 20260507064007 | 64 | 69 | 5.2 | 13.0 | 0.00 | 0.03 | 0.02 | 89 | 1020.4 |
| 20260507063006 | 64 | 52 | 4.3 | 10.4 | 0.00 | 0.03 | 0.02 | 88 | 1020.5 |
| 20260507061506 | 64 | 56 | 5.2 | 11.3 | 0.00 | 0.03 | 0.02 | 87 | 1020.5 |
| 20260507061006 | 64 | 40 | 3.5 | 10.4 | 0.00 | 0.03 | 0.02 | 87 | 1020.4 |
| 20260507060005 | 64 | 46 | 4.3 | 11.3 | 0.00 | 0.03 | 0.02 | 87 | 1020.6 |
| 20260507055509 | 64 | 58 | 4.3 | 12.2 | 0.00 | 0.03 | 0.02 | 87 | 1020.6 |
| 20260507055006 | 64 | 31 | 6.1 | 12.2 | 0.00 | 0.03 | 0.02 | 87 | 1020.6 |
| 20260507053506 | 64 | 53 | 6.1 | 12.2 | 0.00 | 0.03 | 0.02 | 87 | 1020.5 |
| 20260507051505 | 64 | 41 | 4.3 | 8.7 | 0.00 | 0.03 | 0.02 | 86 | 1020.6 |
| 20260507051007 | 64 | 23 | 5.2 | 10.4 | 0.00 | 0.03 | 0.02 | 86 | 1020.5 |
| 20260507050006 | 64 | 31 | 4.3 | 11.3 | 0.00 | 0.03 | 0.02 | 84 | 1020.6 |
| 20260507045505 | 64 | 62 | 4.3 | 10.4 | 0.00 | 0.03 | 0.02 | 84 | 1020.7 |
| 20260507044006 | 65 | 19 | 6.1 | 13.0 | 0.00 | 0.03 | 0.02 | 83 | 1020.7 |
| 20260507043007 | 66 | 24 | 12.2 | 18.2 | 0.00 | 0.03 | 0.02 | 82 | 1020.6 |
| 20260507042005 | 66 | 47 | 8.7 | 15.6 | 0.00 | 0.03 | 0.02 | 81 | 1020.8 |
| 20260507040006 | 67 | 27 | 10.4 | 20.9 | 0.00 | 0.03 | 0.02 | 79 | 1020.9 |
| 20260507034507 | 67 | 10 | 5.2 | 11.3 | 0.00 | 0.03 | 0.02 | 78 | 1020.9 |
| 20260507034006 | 68 | 28 | 6.1 | 13.9 | 0.00 | 0.03 | 0.02 | 78 | 1020.8 |
| 20260507032006 | 68 | 55 | 9.6 | 15.6 | 0.00 | 0.03 | 0.02 | 76 | 1020.9 |
| 20260507031506 | 69 | 28 | 7.0 | 15.6 | 0.00 | 0.03 | 0.02 | 76 | 1020.9 |
| 20260507031006 | 69 | 24 | 7.8 | 13.0 | 0.00 | 0.03 | 0.02 | 76 | 1020.9 |
| 20260507025507 | 69 | 22 | 10.4 | 19.1 | 0.00 | 0.03 | 0.02 | 75 | 1020.9 |
| 20260507025005 | 69 | 18 | 6.1 | 13.9 | 0.00 | 0.03 | 0.02 | 74 | 1021.0 |
| 20260507023506 | 70 | 39 | 7.8 | 15.6 | 0.00 | 0.03 | 0.02 | 73 | 1021.4 |
| 20260507023006 | 70 | 19 | 8.7 | 18.2 | 0.00 | 0.03 | 0.02 | 73 | 1021.4 |
| 20260507021506 | 70 | 16 | 9.6 | 15.6 | 0.00 | 0.03 | 0.02 | 74 | 1021.5 |
| 20260507021005 | 70 | 10 | 7.8 | 13.9 | 0.00 | 0.03 | 0.02 | 75 | 1021.5 |
| 20260507020506 | 70 | 19 | 4.3 | 13.9 | 0.00 | 0.03 | 0.02 | 76 | 1021.5 |
| 20260507020005 | 70 | 40 | 6.1 | 15.6 | 0.00 | 0.03 | 0.02 | 75 | 1021.5 |
| 20260507015007 | 70 | 23 | 13.9 | 21.7 | 0.00 | 0.03 | 0.02 | 74 | 1021.6 |
| 20260507014007 | 70 | 21 | 7.0 | 15.6 | 0.00 | 0.03 | 0.02 | 76 | 1021.6 |
| 20260507012505 | 70 | 16 | 11.3 | 20.0 | 0.00 | 0.03 | 0.02 | 75 | 1021.7 |
| 20260507012005 | 70 | 11 | 14.8 | 22.6 | 0.00 | 0.03 | 0.02 | 74 | 1021.8 |
| 20260507011005 | 70 | 25 | 8.7 | 19.1 | 0.00 | 0.03 | 0.02 | 76 | 1021.8 |
| 20260507010505 | 70 | 15 | 12.2 | 21.7 | 0.00 | 0.03 | 0.02 | 75 | 1021.9 |
| 20260507010005 | 69 | 13 | 15.6 | 21.7 | 0.00 | 0.03 | 0.02 | 76 | 1021.9 |
| 20260507005507 | 69 | 25 | 8.7 | 20.0 | 0.00 | 0.03 | 0.02 | 78 | 1022.1 |
| 20260507004505 | 68 | 53 | 7.8 | 12.2 | 0.00 | 0.03 | 0.02 | 83 | 1022.1 |
| 20260507003007 | 70 | 15 | 13.9 | 22.6 | 0.00 | 0.03 | 0.02 | 76 | 1022.2 |
| 20260507002505 | 70 | 30 | 10.4 | 20.0 | 0.00 | 0.03 | 0.02 | 77 | 1022.4 |
| 20260507002005 | 70 | 342 | 4.3 | 13.9 | 0.00 | 0.03 | 0.02 | 78 | 1022.4 |
| 20260507001004 | 70 | 17 | 10.4 | 20.9 | 0.00 | 0.03 | 0.02 | 79 | 1022.5 |
| 20260507000505 | 70 | 18 | 7.0 | 18.2 | 0.00 | 0.03 | 0.02 | 78 | 1022.3 |
| 20260507000005 | 69 | 24 | 7.0 | 12.2 | 0.00 | 0.03 | 0.02 | 79 | 1022.4 |
| 20260506234005 | 70 | 25 | 7.8 | 13.0 | 0.00 | 0.03 | 0.02 | 78 | 1022.7 |
| 20260506233007 | 69 | 22 | 5.2 | 14.8 | 0.00 | 0.03 | 0.02 | 79 | 1022.6 |
| 20260506232005 | 69 | 14 | 10.4 | 17.4 | 0.00 | 0.03 | 0.02 | 77 | 1022.7 |
| 20260506231505 | 69 | 10 | 12.2 | 20.0 | 0.00 | 0.03 | 0.02 | 77 | 1022.8 |
| 20260506225505 | 69 | 23 | 6.1 | 13.0 | 0.00 | 0.03 | 0.02 | 80 | 1022.9 |
| 20260506225004 | 68 | 50 | 6.1 | 13.0 | 0.00 | 0.03 | 0.02 | 81 | 1022.8 |
| 20260506224005 | 68 | 48 | 4.3 | 13.9 | 0.00 | 0.03 | 0.02 | 79 | 1023.0 |
| 20260506223505 | 68 | 23 | 3.5 | 11.3 | 0.00 | 0.03 | 0.02 | 80 | 1022.8 |
| 20260506223005 | 68 | 59 | 5.2 | 11.3 | 0.00 | 0.03 | 0.02 | 80 | 1023.0 |
| 20260506221505 | 67 | 45 | 5.2 | 12.2 | 0.00 | 0.03 | 0.02 | 83 | 1023.1 |
| 20260506220507 | 66 | 44 | 6.1 | 12.2 | 0.00 | 0.03 | 0.02 | 86 | 1023.1 |
| 20260506215505 | 66 | 66 | 3.5 | 13.0 | 0.00 | 0.03 | 0.02 | 87 | 1023.2 |
| 20260506215006 | 65 | 42 | 4.3 | 7.8 | 0.00 | 0.03 | 0.02 | 90 | 1023.2 |
| 20260506214506 | 65 | 46 | 3.5 | 7.8 | 0.00 | 0.03 | 0.02 | 91 | 1023.2 |
| 20260506212506 | 64 | 73 | 3.5 | 7.8 | 0.00 | 0.03 | 0.02 | 98 | 1023.5 |
| 20260506212004 | 63 | 97 | 4.3 | 7.0 | 0.00 | 0.03 | 0.02 | 99 | 1023.4 |
| 20260506211508 | 63 | 84 | 4.3 | 7.0 | 0.00 | 0.03 | 0.02 | 99 | 1023.6 |
| 20260506211012 | 63 | 75 | 2.6 | 7.8 | 0.00 | 0.03 | 0.02 | 99 | 1023.5 |
| 20260506210513 | 62 | 93 | 2.6 | 7.0 | 0.00 | 0.03 | 0.02 | 99 | 1023.6 |
| 20260506205505 | 62 | 115 | 2.6 | 5.2 | 0.00 | 0.03 | 0.02 | 99 | 1023.7 |
| 20260506204504 | 61 | 94 | 2.6 | 5.2 | 0.00 | 0.03 | 0.02 | 99 | 1023.6 |
| 20260506204004 | 61 | 106 | 2.6 | 6.1 | 0.00 | 0.03 | 0.02 | 99 | 1023.7 |
| 20260506203504 | 60 | 118 | 3.5 | 7.0 | 0.00 | 0.03 | 0.02 | 99 | 1023.8 |
| 20260506201506 | 59 | 103 | 3.5 | 5.2 | 0.00 | 0.03 | 0.02 | 99 | 1023.7 |
| 20260506201004 | 59 | 112 | 4.3 | 7.0 | 0.00 | 0.03 | 0.02 | 99 | 1023.6 |
| 20260506200506 | 58 | 113 | 3.5 | 6.1 | 0.00 | 0.03 | 0.02 | 99 | 1023.7 |
| 20260506200005 | 58 | 105 | 3.5 | 7.0 | 0.00 | 0.03 | 0.02 | 99 | 1023.6 |